Regional Weather Roundup
Issued by NWS

Home | Current Version | Previous Version | Graphics & Text | Print | Product List | Glossary On
Versions: 1 2 3 4 5 6 7 8 9 10 11 12 13 14 15 16 17 18 19 20 21 22 23 24 25 26 27 28 29 30 31 32 33 34 35 36 37 38 39 40 41 42 43 44 45 46 47 48 49 50
000
ASUS43 KFSD 160910
RWRSD

WEATHER ROUNDUP FOR SOUTH DAKOTA
NATIONAL WEATHER SERVICE SIOUX FALLS SD
400 AM CDT WED APR 16 2014

NOTE: "FAIR" INDICATES FEW OR NO CLOUDS BELOW 12,000 FEET WITH NO
SIGNIFICANT WEATHER AND/OR OBSTRUCTIONS TO VISIBILITY.


SDZ001>005-009-010-012>017-161000-
NORTHWEST AND NORTH CENTRAL SOUTH DAKOTA

CITY           SKY/WX    TMP DP  RH WIND       PRES   REMARKS
BUFFALO          N/A     36  25  64 NE10      29.60R
MOBRIDGE       MIX PCPN  32  23  69 E23G30    29.64F WCI  19
$$

SDZ012>016-024>037-041>051-057-063-072>074-161000-
SOUTHWEST AND SOUTH CENTRAL SOUTH DAKOTA

CITY           SKY/WX    TMP DP  RH WIND       PRES   REMARKS
RAPID CTY ARPT CLOUDY    40  36  86 N14       29.62R
PIERRE         CLOUDY    36  25  64 NE22G29   29.55R
CUSTER         CLOUDY    35  30  82 NW7       29.61R WCI  29
ELLSWORTH AFB  CLOUDY    40  38  91 N15       29.63R
PHILIP         LGT RAIN  37  29  72 N9        29.60R
PINE RIDGE     CLOUDY    42  38  85 N15G22    29.60R
SPEARFISH      RAIN      37  37 100 W10G20    29.69R
WINNER         PTSUNNY   55  28  35 W8        29.45F
$$

SDZ004>011-016>023-039-040-161000-
NORTHEAST SOUTH DAKOTA

CITY           SKY/WX    TMP DP  RH WIND       PRES   REMARKS
ABERDEEN       CLOUDY    32  20  61 E16       29.76R WCI  21
WATERTOWN      CLOUDY    30  21  69 E18G30    29.71F WCI  18
SISSETON         N/A     30  21  69 SE20      29.84R WCI  17
$$

SDZ017-020-022-023-036>040-048>070-161000-
SOUTHEAST SOUTH DAKOTA

CITY           SKY/WX    TMP DP  RH WIND       PRES   REMARKS
SIOUX FALLS    CLOUDY    41  28  60 SE15G23   29.64F
HURON          CLOUDY    39  26  59 E18G25    29.59F
MITCHELL       CLOUDY    45  29  53 SE14      29.55F
YANKTON        CLOUDY    48  27  43 SE16G23   29.59F
$$

ABBREVIATIONS USED IN REMARKS
   TC - TEMPERATURE IN CELSIUS
  WCI - WIND CHILL INDEX
   HX - HEAT INDEX
  VSB - VISIBILITY




USA.gov is the U.S. government's official web portal to all federal, state and local government web resources and services.